| time (UTC) | temp F | wind direction | speed knots | gust knots | rain 1hr in | rain 24hr in | rain mn in | humidity % | barometer mb |
| 20260902212503 | 95 | 203 | 1.7 | 3.5 | 0.00 | 0.00 | 0.00 | 50 | 1015.5 |
| 20260902212003 | 95 | 182 | 1.7 | 4.3 | 0.00 | 0.00 | 0.00 | 48 | 1015.6 |
| 20260902211503 | 94 | 208 | 1.7 | 4.3 | 0.00 | 0.00 | 0.00 | 49 | 1015.6 |
| 20260902211003 | 94 | 239 | 1.7 | 7.0 | 0.00 | 0.00 | 0.00 | 50 | 1015.6 |
| 20260902210503 | 94 | 213 | 1.7 | 7.0 | 0.00 | 0.00 | 0.00 | 50 | 1015.7 |
| 20260902210003 | 94 | 162 | 1.7 | 5.2 | 0.00 | 0.00 | 0.00 | 49 | 1015.7 |
| 20260902205504 | 94 | 176 | 1.7 | 5.2 | 0.00 | 0.00 | 0.00 | 48 | 1015.7 |
| 20260902205024 | 94 | 182 | 1.7 | 4.3 | 0.00 | 0.00 | 0.00 | 48 | 1015.8 |
| 20260902204503 | 94 | 226 | 1.7 | 4.3 | 0.00 | 0.00 | 0.00 | 48 | 1015.8 |
| 20260902204003 | 95 | 261 | 1.7 | 3.5 | 0.00 | 0.00 | 0.00 | 50 | 1015.8 |
| 20260902203503 | 94 | 230 | 1.7 | 3.5 | 0.00 | 0.00 | 0.00 | 50 | 1015.9 |
| 20260902203003 | 94 | 174 | 1.7 | 7.8 | 0.00 | 0.00 | 0.00 | 50 | 1015.9 |
| 20260902202503 | 94 | 147 | 2.6 | 7.8 | 0.00 | 0.00 | 0.00 | 49 | 1015.8 |
| 20260902202003 | 94 | 158 | 1.7 | 5.2 | 0.00 | 0.00 | 0.00 | 48 | 1015.8 |
| 20260902201503 | 95 | 244 | 1.7 | 5.2 | 0.00 | 0.00 | 0.00 | 49 | 1015.9 |
| 20260902201003 | 95 | 225 | 1.7 | 5.2 | 0.00 | 0.00 | 0.00 | 48 | 1015.9 |
| 20260902200503 | 95 | 223 | 1.7 | 5.2 | 0.00 | 0.00 | 0.00 | 48 | 1016.0 |
| 20260902200003 | 95 | 261 | 1.7 | 7.8 | 0.00 | 0.00 | 0.00 | 48 | 1016.0 |
| 20260902195503 | 94 | 244 | 2.6 | 7.8 | 0.00 | 0.00 | 0.00 | 48 | 1016.0 |
| 20260902195004 | 94 | 194 | 2.6 | 7.0 | 0.00 | 0.00 | 0.00 | 47 | 1016.2 |
| 20260902194503 | 94 | 201 | 1.7 | 3.5 | 0.00 | 0.00 | 0.00 | 49 | 1016.1 |
| 20260902194004 | 94 | 225 | 0.9 | 6.1 | 0.00 | 0.00 | 0.00 | 50 | 1016.2 |
| 20260902193525 | 93 | 231 | 1.7 | 6.1 | 0.00 | 0.00 | 0.00 | 49 | 1016.3 |
| 20260902193004 | 94 | 251 | 1.7 | 5.2 | 0.00 | 0.00 | 0.00 | 49 | 1016.3 |
| 20260902192504 | 94 | 213 | 1.7 | 4.3 | 0.00 | 0.00 | 0.00 | 51 | 1016.4 |
| 20260902192004 | 94 | 200 | 0.9 | 4.3 | 0.00 | 0.00 | 0.00 | 50 | 1016.6 |
| 20260902191504 | 93 | 211 | 1.7 | 6.1 | 0.00 | 0.00 | 0.00 | 51 | 1016.6 |
| 20260902191004 | 93 | 209 | 2.6 | 7.0 | 0.00 | 0.00 | 0.00 | 50 | 1016.7 |
| 20260902190525 | 93 | 216 | 2.6 | 7.0 | 0.00 | 0.00 | 0.00 | 49 | 1016.7 |
| 20260902190024 | 93 | 248 | 1.7 | 7.8 | 0.00 | 0.00 | 0.00 | 51 | 1016.7 |
| 20260902185503 | 93 | 245 | 1.7 | 7.8 | 0.00 | 0.00 | 0.00 | 49 | 1016.8 |
| 20260902185003 | 93 | 265 | 1.7 | 7.0 | 0.00 | 0.00 | 0.00 | 51 | 1016.8 |
| 20260902184503 | 93 | 251 | 2.6 | 7.0 | 0.00 | 0.00 | 0.00 | 49 | 1016.8 |
| 20260902184003 | 93 | 228 | 1.7 | 5.2 | 0.00 | 0.00 | 0.00 | 49 | 1016.8 |
| 20260902183503 | 93 | 229 | 1.7 | 5.2 | 0.00 | 0.00 | 0.00 | 50 | 1016.7 |
| 20260902183003 | 93 | 236 | 1.7 | 6.1 | 0.00 | 0.00 | 0.00 | 50 | 1016.9 |
| 20260902182504 | 93 | 262 | 2.6 | 8.7 | 0.00 | 0.00 | 0.00 | 52 | 1016.9 |
| 20260902182024 | 93 | 266 | 2.6 | 8.7 | 0.00 | 0.00 | 0.00 | 50 | 1016.9 |
| 20260902181504 | 92 | 237 | 1.7 | 7.8 | 0.00 | 0.00 | 0.00 | 52 | 1017.0 |
| 20260902181025 | 92 | 251 | 1.7 | 7.8 | 0.00 | 0.00 | 0.00 | 50 | 1017.0 |
| 20260902180508 | 92 | 247 | 1.7 | 7.8 | 0.00 | 0.00 | 0.00 | 51 | 1017.0 |
| 20260902180013 | 92 | 243 | 1.7 | 7.0 | 0.00 | 0.00 | 0.00 | 50 | 1017.1 |
| 20260902175525 | 92 | 231 | 2.6 | 7.0 | 0.00 | 0.00 | 0.00 | 50 | 1017.1 |
| 20260902175024 | 92 | 228 | 1.7 | 5.2 | 0.00 | 0.00 | 0.00 | 51 | 1017.2 |
| 20260902174503 | 92 | 224 | 1.7 | 8.7 | 0.00 | 0.00 | 0.00 | 51 | 1017.2 |
| 20260902174004 | 92 | 194 | 2.6 | 8.7 | 0.00 | 0.00 | 0.00 | 51 | 1017.3 |
| 20260902173503 | 92 | 172 | 2.6 | 7.0 | 0.00 | 0.00 | 0.00 | 53 | 1017.4 |
| 20260902173010 | 93 | 193 | 1.7 | 6.1 | 0.00 | 0.00 | 0.00 | 56 | 1017.4 |
| 20260902172510 | 93 | 208 | 1.7 | 8.7 | 0.00 | 0.00 | 0.00 | 55 | 1017.5 |
| 20260902172031 | 92 | 212 | 1.7 | 8.7 | 0.00 | 0.00 | 0.00 | 56 | 1017.5 |
| 20260902171510 | 92 | 230 | 1.7 | 7.0 | 0.00 | 0.00 | 0.00 | 55 | 1017.5 |
| 20260902171010 | 92 | 237 | 1.7 | 8.7 | 0.00 | 0.00 | 0.00 | 56 | 1017.6 |
| 20260902170510 | 92 | 197 | 2.6 | 8.7 | 0.00 | 0.00 | 0.00 | 56 | 1017.5 |
| 20260902170011 | 92 | 189 | 1.7 | 8.7 | 0.00 | 0.00 | 0.00 | 57 | 1017.6 |
| 20260902165510 | 92 | 229 | 1.7 | 8.7 | 0.00 | 0.00 | 0.00 | 56 | 1017.7 |
| 20260902165010 | 91 | 211 | 1.7 | 6.1 | 0.00 | 0.00 | 0.00 | 55 | 1017.7 |
| 20260902164510 | 92 | 162 | 1.7 | 6.1 | 0.00 | 0.00 | 0.00 | 56 | 1017.7 |
| 20260902164010 | 92 | 146 | 1.7 | 6.1 | 0.00 | 0.00 | 0.00 | 56 | 1017.7 |
| 20260902163510 | 92 | 181 | 1.7 | 6.1 | 0.00 | 0.00 | 0.00 | 55 | 1017.8 |
| 20260902163011 | 91 | 209 | 1.7 | 7.0 | 0.00 | 0.00 | 0.00 | 55 | 1017.8 |
| 20260902162531 | 91 | 229 | 0.9 | 7.0 | 0.00 | 0.00 | 0.00 | 56 | 1017.8 |
| 20260902162010 | 91 | 228 | 0.9 | 4.3 | 0.00 | 0.00 | 0.00 | 58 | 1017.8 |
| 20260902160446 | 90 | 245 | 1.7 | 7.0 | 0.00 | 0.00 | 0.00 | 57 | 1018.0 |
| 20260902155946 | 90 | 243 | 1.7 | 4.3 | 0.00 | 0.00 | 0.00 | 58 | 1017.9 |
| 20260902155446 | 90 | 241 | 1.7 | 4.3 | 0.00 | 0.00 | 0.00 | 59 | 1017.9 |
| 20260902154946 | 90 | 220 | 1.7 | 5.2 | 0.00 | 0.00 | 0.00 | 58 | 1018.0 |
| 20260902154446 | 90 | 218 | 1.7 | 5.2 | 0.00 | 0.00 | 0.00 | 59 | 1018.1 |
| 20260902153946 | 89 | 231 | 1.7 | 5.2 | 0.00 | 0.00 | 0.00 | 62 | 1018.0 |
| 20260902153446 | 89 | 236 | 1.7 | 5.2 | 0.00 | 0.00 | 0.00 | 59 | 1018.0 |
| 20260902153007 | 89 | 230 | 0.9 | 4.3 | 0.00 | 0.00 | 0.00 | 62 | 1018.1 |
| 20260902152447 | 89 | 213 | 1.7 | 4.3 | 0.00 | 0.00 | 0.00 | 60 | 1018.2 |
| 20260902151946 | 88 | 237 | 1.7 | 6.1 | 0.00 | 0.00 | 0.00 | 62 | 1018.2 |
| 20260902151446 | 88 | 257 | 1.7 | 6.1 | 0.00 | 0.00 | 0.00 | 62 | 1018.1 |
| 20260902150946 | 88 | 266 | 1.7 | 5.2 | 0.00 | 0.00 | 0.00 | 63 | 1018.2 |
| 20260902150446 | 87 | 253 | 1.7 | 5.2 | 0.00 | 0.00 | 0.00 | 63 | 1018.3 |
| 20260902145946 | 87 | 241 | 1.7 | 5.2 | 0.00 | 0.00 | 0.00 | 64 | 1018.2 |
| 20260902145446 | 86 | 234 | 1.7 | 5.2 | 0.00 | 0.00 | 0.00 | 65 | 1018.2 |
| 20260902144946 | 86 | 241 | 1.7 | 5.2 | 0.00 | 0.00 | 0.00 | 64 | 1018.2 |
| 20260902144447 | 86 | 242 | 1.7 | 5.2 | 0.00 | 0.00 | 0.00 | 65 | 1018.2 |
| 20260902144008 | 86 | 236 | 1.7 | 3.5 | 0.00 | 0.00 | 0.00 | 66 | 1018.3 |
| 20260902143447 | 85 | 258 | 1.7 | 5.2 | 0.00 | 0.00 | 0.00 | 66 | 1018.2 |
| 20260902142947 | 85 | 265 | 1.7 | 5.2 | 0.00 | 0.00 | 0.00 | 67 | 1018.2 |
| 20260902142447 | 84 | 267 | 1.7 | 3.5 | 0.00 | 0.00 | 0.00 | 67 | 1018.1 |
| 20260902141947 | 84 | 250 | 1.7 | 5.2 | 0.00 | 0.00 | 0.00 | 68 | 1018.1 |
| 20260902141446 | 84 | 241 | 0.9 | 5.2 | 0.00 | 0.00 | 0.00 | 70 | 1018.2 |
| 20260902140946 | 83 | 238 | 0.9 | 4.3 | 0.00 | 0.00 | 0.00 | 69 | 1018.1 |
| 20260902140446 | 83 | 223 | 1.7 | 4.3 | 0.00 | 0.00 | 0.00 | 69 | 1018.2 |
| 20260902135946 | 83 | 200 | 0.9 | 3.5 | 0.00 | 0.00 | 0.00 | 70 | 1018.2 |
| 20260902135446 | 82 | 208 | 0.9 | 3.5 | 0.00 | 0.00 | 0.00 | 71 | 1018.2 |
| 20260902134947 | 82 | 230 | 0.9 | 3.5 | 0.00 | 0.00 | 0.00 | 71 | 1018.2 |
| 20260902134508 | 82 | 243 | 1.7 | 4.3 | 0.00 | 0.00 | 0.00 | 71 | 1018.3 |
| 20260902133947 | 82 | 277 | 0.9 | 4.3 | 0.00 | 0.00 | 0.00 | 71 | 1018.3 |
| 20260902133446 | 81 | 288 | 0.9 | 3.5 | 0.00 | 0.00 | 0.00 | 72 | 1018.3 |
| 20260902132946 | 81 | 256 | 0.9 | 5.2 | 0.00 | 0.00 | 0.00 | 74 | 1018.2 |
| 20260902132446 | 80 | 232 | 0.9 | 5.2 | 0.00 | 0.00 | 0.00 | 73 | 1018.3 |
| 20260902132007 | 80 | 211 | 0.9 | 2.6 | 0.00 | 0.00 | 0.00 | 75 | 1018.2 |
| 20260902131507 | 80 | 245 | 0.9 | 2.6 | 0.00 | 0.00 | 0.00 | 75 | 1018.2 |
| 20260902131007 | 79 | 264 | 0.9 | 1.7 | 0.00 | 0.00 | 0.00 | 76 | 1018.1 |
| 20260902130446 | 79 | 269 | 0.9 | 2.6 | 0.00 | 0.00 | 0.00 | 77 | 1018.1 |
| 20260902125946 | 78 | 276 | 0.9 | 2.6 | 0.00 | 0.00 | 0.00 | 77 | 1018.1 |
| 20260902125446 | 78 | 273 | 0.9 | 1.7 | 0.00 | 0.00 | 0.00 | 77 | 1018.2 |
| 20260902124948 | 78 | 276 | 0.0 | 1.7 | 0.00 | 0.00 | 0.00 | 78 | 1018.1 |
| 20260902124447 | 77 | 247 | 0.0 | 1.7 | 0.00 | 0.00 | 0.00 | 78 | 1018.1 |
| 20260902123946 | 77 | 200 | 0.0 | 1.7 | 0.00 | 0.00 | 0.00 | 79 | 1018.1 |
| 20260902123446 | 77 | 213 | 0.0 | 1.7 | 0.00 | 0.00 | 0.00 | 80 | 1018.0 |
| 20260902122946 | 76 | 234 | 0.0 | 2.6 | 0.00 | 0.00 | 0.00 | 80 | 1018.0 |
| 20260902122446 | 76 | 230 | 0.0 | 2.6 | 0.00 | 0.00 | 0.00 | 81 | 1018.0 |
| 20260902121946 | 75 | 218 | 0.0 | 0.9 | 0.00 | 0.00 | 0.00 | 82 | 1018.0 |
| 20260902121446 | 75 | 254 | 0.0 | 1.7 | 0.00 | 0.00 | 0.00 | 82 | 1018.0 |
| 20260902120947 | 74 | 291 | 0.0 | 1.7 | 0.00 | 0.00 | 0.00 | 83 | 1017.9 |
| 20260902120507 | 74 | 292 | 0.0 | 0.9 | 0.00 | 0.00 | 0.00 | 83 | 1017.9 |
| 20260902120007 | 74 | 292 | 0.0 | 1.7 | 0.00 | 0.00 | 0.00 | 83 | 1017.9 |
| 20260902115446 | 74 | 292 | 0.0 | 1.7 | 0.00 | 0.00 | 0.00 | 84 | 1017.9 |
| 20260902114947 | 73 | 292 | 0.0 | 0.9 | 0.00 | 0.00 | 0.00 | 84 | 1017.8 |
| 20260902114447 | 73 | 292 | 0.0 | 0.9 | 0.00 | 0.00 | 0.00 | 84 | 1017.8 |
| 20260902113947 | 73 | 292 | 0.0 | 0.9 | 0.00 | 0.00 | 0.00 | 84 | 1017.6 |
| 20260902113507 | 73 | 0 | 0.0 | 0.0 | 0.00 | 0.00 | 0.00 | 84 | 1017.6 |
| 20260902112946 | 73 | 0 | 0.0 | 0.0 | 0.00 | 0.00 | 0.00 | 84 | 1017.5 |
| 20260902112446 | 73 | 0 | 0.0 | 0.0 | 0.00 | 0.00 | 0.00 | 84 | 1017.5 |
| 20260902111946 | 73 | 0 | 0.0 | 0.0 | 0.00 | 0.00 | 0.00 | 84 | 1017.5 |
| 20260902111446 | 73 | 0 | 0.0 | 0.0 | 0.00 | 0.00 | 0.00 | 84 | 1017.4 |
| 20260902110946 | 73 | 0 | 0.0 | 0.0 | 0.00 | 0.00 | 0.00 | 84 | 1017.4 |
| 20260902110446 | 73 | 0 | 0.0 | 0.0 | 0.00 | 0.00 | 0.00 | 84 | 1017.3 |
| 20260902105946 | 73 | 0 | 0.0 | 0.0 | 0.00 | 0.00 | 0.00 | 84 | 1017.4 |
| 20260902105446 | 73 | 0 | 0.0 | 0.0 | 0.00 | 0.00 | 0.00 | 84 | 1017.4 |
| 20260902104946 | 73 | 0 | 0.0 | 0.0 | 0.00 | 0.00 | 0.00 | 84 | 1017.4 |
| 20260902104447 | 73 | 0 | 0.0 | 0.0 | 0.00 | 0.00 | 0.00 | 84 | 1017.4 |
| 20260902103947 | 73 | 0 | 0.0 | 0.0 | 0.00 | 0.00 | 0.00 | 84 | 1017.4 |
| 20260902103508 | 73 | 0 | 0.0 | 0.0 | 0.00 | 0.00 | 0.00 | 84 | 1017.4 |
| 20260902102947 | 73 | 0 | 0.0 | 0.0 | 0.00 | 0.00 | 0.00 | 84 | 1017.4 |
| 20260902102447 | 73 | 0 | 0.0 | 0.0 | 0.00 | 0.00 | 0.00 | 84 | 1017.4 |
| 20260902101947 | 73 | 293 | 0.0 | 0.9 | 0.00 | 0.00 | 0.00 | 84 | 1017.3 |
| 20260902101508 | 73 | 293 | 0.0 | 0.9 | 0.00 | 0.00 | 0.00 | 84 | 1017.4 |
| 20260902100947 | 74 | 293 | 0.0 | 0.9 | 0.00 | 0.00 | 0.00 | 84 | 1017.3 |
| 20260902100447 | 73 | 293 | 0.0 | 0.9 | 0.00 | 0.00 | 0.00 | 84 | 1017.3 |
| 20260902095947 | 73 | 293 | 0.0 | 0.9 | 0.00 | 0.00 | 0.00 | 84 | 1017.3 |
| 20260902095507 | 74 | 293 | 0.0 | 0.9 | 0.00 | 0.00 | 0.00 | 84 | 1017.2 |
| 20260902094946 | 74 | 293 | 0.0 | 0.9 | 0.00 | 0.00 | 0.00 | 84 | 1017.2 |
| 20260902094446 | 74 | 293 | 0.0 | 0.9 | 0.00 | 0.00 | 0.00 | 83 | 1017.2 |
| 20260902093946 | 74 | 293 | 0.0 | 0.9 | 0.00 | 0.00 | 0.00 | 83 | 1017.2 |
| 20260902093447 | 74 | 293 | 0.0 | 0.9 | 0.00 | 0.00 | 0.00 | 83 | 1017.2 |
| 20260902092947 | 74 | 293 | 0.0 | 0.9 | 0.00 | 0.00 | 0.00 | 83 | 1017.3 |
| 20260902092447 | 74 | 293 | 0.0 | 0.9 | 0.00 | 0.00 | 0.00 | 83 | 1017.3 |
| 20260902091947 | 74 | 0 | 0.0 | 0.0 | 0.00 | 0.00 | 0.00 | 83 | 1017.2 |
| 20260902091447 | 74 | 0 | 0.0 | 0.0 | 0.00 | 0.00 | 0.00 | 83 | 1017.2 |
| 20260902090947 | 74 | 0 | 0.0 | 0.0 | 0.00 | 0.00 | 0.00 | 83 | 1017.1 |
| 20260902090447 | 74 | 293 | 0.0 | 0.9 | 0.00 | 0.00 | 0.00 | 83 | 1017.0 |
| 20260902085947 | 74 | 293 | 0.0 | 0.9 | 0.00 | 0.00 | 0.00 | 83 | 1017.0 |
| 20260902085447 | 74 | 293 | 0.0 | 0.9 | 0.00 | 0.00 | 0.00 | 83 | 1017.0 |
| 20260902084947 | 74 | 293 | 0.0 | 0.9 | 0.00 | 0.00 | 0.00 | 83 | 1017.0 |
| 20260902084447 | 74 | 293 | 0.0 | 0.9 | 0.00 | 0.00 | 0.00 | 83 | 1016.8 |
| 20260902083947 | 74 | 0 | 0.0 | 0.0 | 0.00 | 0.00 | 0.00 | 83 | 1016.7 |
| 20260902083447 | 74 | 0 | 0.0 | 0.0 | 0.00 | 0.00 | 0.00 | 83 | 1016.6 |
| 20260902082946 | 74 | 0 | 0.0 | 0.0 | 0.00 | 0.00 | 0.00 | 83 | 1016.6 |
| 20260902082508 | 74 | 0 | 0.0 | 0.0 | 0.00 | 0.00 | 0.00 | 83 | 1016.6 |
| 20260902081947 | 74 | 293 | 0.0 | 0.9 | 0.00 | 0.00 | 0.00 | 82 | 1016.6 |
| 20260902081447 | 74 | 293 | 0.0 | 0.9 | 0.00 | 0.00 | 0.00 | 82 | 1016.6 |
| 20260902080946 | 74 | 293 | 0.0 | 0.9 | 0.00 | 0.00 | 0.00 | 82 | 1016.5 |
| 20260902080447 | 75 | 293 | 0.0 | 0.9 | 0.00 | 0.00 | 0.00 | 82 | 1016.5 |
| 20260902080008 | 75 | 293 | 0.0 | 0.9 | 0.00 | 0.00 | 0.00 | 82 | 1016.5 |
| 20260902075447 | 75 | 0 | 0.0 | 0.0 | 0.00 | 0.00 | 0.00 | 81 | 1016.5 |
| 20260902074946 | 75 | 293 | 0.0 | 0.9 | 0.00 | 0.00 | 0.00 | 81 | 1016.5 |
| 20260902074446 | 75 | 293 | 0.0 | 0.9 | 0.00 | 0.00 | 0.00 | 81 | 1016.4 |
| 20260902073946 | 75 | 293 | 0.0 | 0.9 | 0.00 | 0.00 | 0.00 | 81 | 1016.4 |
| 20260902073447 | 75 | 293 | 0.0 | 0.9 | 0.00 | 0.00 | 0.00 | 81 | 1016.4 |
| 20260902072947 | 75 | 293 | 0.0 | 0.9 | 0.00 | 0.00 | 0.00 | 80 | 1016.5 |
| 20260902072447 | 75 | 293 | 0.0 | 1.7 | 0.00 | 0.00 | 0.00 | 81 | 1016.4 |
| 20260902071946 | 75 | 293 | 0.0 | 1.7 | 0.00 | 0.00 | 0.00 | 80 | 1016.4 |
| 20260902071447 | 75 | 293 | 0.0 | 0.9 | 0.00 | 0.00 | 0.00 | 81 | 1016.4 |
| 20260902070947 | 76 | 293 | 0.0 | 0.9 | 0.00 | 0.00 | 0.00 | 81 | 1016.4 |
| 20260902070447 | 76 | 293 | 0.0 | 0.9 | 0.00 | 0.00 | 0.00 | 81 | 1016.4 |
| 20260902065946 | 76 | 293 | 0.0 | 0.9 | 0.00 | 0.00 | 0.00 | 81 | 1016.4 |
| 20260902065446 | 75 | 293 | 0.0 | 0.9 | 0.00 | 0.00 | 0.00 | 81 | 1016.5 |
| 20260902064946 | 75 | 293 | 0.0 | 0.9 | 0.00 | 0.00 | 0.00 | 81 | 1016.4 |
| 20260902064447 | 75 | 293 | 0.0 | 0.9 | 0.00 | 0.00 | 0.00 | 81 | 1016.4 |
| 20260902064007 | 76 | 293 | 0.0 | 0.9 | 0.00 | 0.00 | 0.00 | 81 | 1016.4 |
| 20260902063446 | 76 | 293 | 0.0 | 0.9 | 0.00 | 0.00 | 0.00 | 81 | 1016.4 |
| 20260902062946 | 76 | 293 | 0.0 | 0.9 | 0.00 | 0.00 | 0.00 | 80 | 1016.4 |
| 20260902062446 | 76 | 293 | 0.0 | 0.9 | 0.00 | 0.00 | 0.00 | 81 | 1016.4 |
| 20260902061947 | 76 | 293 | 0.0 | 0.9 | 0.00 | 0.00 | 0.00 | 81 | 1016.5 |
| 20260902061508 | 76 | 293 | 0.0 | 0.9 | 0.00 | 0.00 | 0.00 | 80 | 1016.5 |
| 20260902060947 | 76 | 293 | 0.0 | 0.9 | 0.00 | 0.00 | 0.00 | 80 | 1016.5 |
| 20260902060447 | 76 | 0 | 0.0 | 0.0 | 0.00 | 0.00 | 0.00 | 80 | 1016.5 |
| 20260902055947 | 76 | 0 | 0.0 | 0.0 | 0.00 | 0.00 | 0.00 | 80 | 1016.5 |
| 20260902055508 | 76 | 0 | 0.0 | 0.0 | 0.00 | 0.00 | 0.00 | 80 | 1016.5 |
| 20260902055008 | 76 | 0 | 0.0 | 0.0 | 0.00 | 0.00 | 0.00 | 79 | 1016.6 |
| 20260902054447 | 76 | 0 | 0.0 | 0.0 | 0.00 | 0.00 | 0.00 | 80 | 1016.5 |
| 20260902053947 | 76 | 0 | 0.0 | 0.0 | 0.00 | 0.00 | 0.00 | 79 | 1016.5 |
| 20260902053447 | 76 | 0 | 0.0 | 0.0 | 0.00 | 0.00 | 0.00 | 79 | 1016.5 |
| 20260902052947 | 77 | 0 | 0.0 | 0.0 | 0.00 | 0.00 | 0.00 | 79 | 1016.6 |
| 20260902052447 | 77 | 0 | 0.0 | 0.0 | 0.00 | 0.00 | 0.00 | 78 | 1016.6 |
| 20260902051946 | 77 | 0 | 0.0 | 0.0 | 0.00 | 0.00 | 0.00 | 78 | 1016.6 |
| 20260902051446 | 77 | 0 | 0.0 | 0.0 | 0.00 | 0.00 | 0.00 | 78 | 1016.6 |
| 20260902050946 | 77 | 0 | 0.0 | 0.0 | 0.00 | 0.00 | 0.00 | 78 | 1016.6 |
| 20260902050446 | 77 | 0 | 0.0 | 0.0 | 0.00 | 0.00 | 0.00 | 78 | 1016.6 |
| 20260902045947 | 77 | 0 | 0.0 | 0.0 | 0.00 | 0.00 | 0.00 | 78 | 1016.6 |
| 20260902045446 | 77 | 293 | 0.0 | 0.9 | 0.00 | 0.00 | 0.00 | 78 | 1016.6 |
| 20260902044946 | 77 | 293 | 0.0 | 0.9 | 0.00 | 0.00 | 0.00 | 78 | 1016.5 |
| 20260902044446 | 77 | 293 | 0.0 | 0.9 | 0.00 | 0.00 | 0.00 | 77 | 1016.6 |
| 20260902043946 | 77 | 0 | 0.0 | 0.0 | 0.00 | 0.00 | 0.00 | 77 | 1016.5 |
| 20260902043446 | 78 | 0 | 0.0 | 0.0 | 0.00 | 0.00 | 0.00 | 77 | 1016.5 |
| 20260902042947 | 78 | 0 | 0.0 | 0.0 | 0.00 | 0.00 | 0.00 | 77 | 1016.5 |
| 20260902042508 | 78 | 0 | 0.0 | 0.0 | 0.00 | 0.00 | 0.00 | 76 | 1016.6 |
| 20260902042008 | 78 | 0 | 0.0 | 0.0 | 0.00 | 0.00 | 0.00 | 77 | 1016.6 |
| 20260902041447 | 78 | 0 | 0.0 | 0.0 | 0.00 | 0.00 | 0.00 | 76 | 1016.6 |
| 20260902040947 | 78 | 0 | 0.0 | 0.0 | 0.00 | 0.00 | 0.00 | 76 | 1016.6 |
| 20260902040447 | 78 | 0 | 0.0 | 0.0 | 0.00 | 0.00 | 0.00 | 76 | 1016.6 |
| 20260902040007 | 79 | 0 | 0.0 | 0.0 | 0.00 | 0.00 | 0.00 | 75 | 1016.6 |
| 20260902035446 | 79 | 0 | 0.0 | 0.0 | 0.00 | 0.00 | 0.00 | 74 | 1016.7 |
| 20260902035007 | 79 | 293 | 0.0 | 0.9 | 0.00 | 0.00 | 0.00 | 74 | 1016.6 |
| 20260902034507 | 79 | 293 | 0.0 | 0.9 | 0.00 | 0.00 | 0.00 | 73 | 1016.6 |
| 20260902033946 | 80 | 293 | 0.0 | 0.9 | 0.00 | 0.00 | 0.00 | 73 | 1016.7 |
| 20260902033447 | 80 | 293 | 0.0 | 0.9 | 0.00 | 0.00 | 0.00 | 73 | 1016.7 |
| 20260902032947 | 80 | 293 | 0.0 | 0.9 | 0.00 | 0.00 | 0.00 | 73 | 1016.6 |
| 20260902032447 | 80 | 293 | 0.0 | 0.9 | 0.00 | 0.00 | 0.00 | 73 | 1016.6 |
| 20260902031947 | 81 | 293 | 0.0 | 0.9 | 0.00 | 0.00 | 0.00 | 72 | 1016.6 |
| 20260902031447 | 81 | 293 | 0.0 | 0.9 | 0.00 | 0.00 | 0.00 | 70 | 1016.6 |
| 20260902030947 | 82 | 293 | 0.0 | 1.7 | 0.00 | 0.00 | 0.00 | 70 | 1016.6 |
| 20260902030447 | 82 | 293 | 0.0 | 1.7 | 0.00 | 0.00 | 0.00 | 69 | 1016.5 |
| 20260902025946 | 82 | 293 | 0.0 | 1.7 | 0.00 | 0.00 | 0.00 | 69 | 1016.5 |
| 20260902025446 | 82 | 293 | 0.0 | 1.7 | 0.00 | 0.00 | 0.00 | 68 | 1016.6 |
| 20260902024946 | 82 | 293 | 0.0 | 1.7 | 0.00 | 0.00 | 0.00 | 69 | 1016.7 |
| 20260902024446 | 82 | 258 | 0.0 | 2.6 | 0.00 | 0.00 | 0.00 | 68 | 1016.6 |
| 20260902023947 | 82 | 243 | 0.9 | 2.6 | 0.00 | 0.00 | 0.00 | 69 | 1016.6 |
| 20260902023447 | 82 | 235 | 0.0 | 2.6 | 0.00 | 0.00 | 0.00 | 69 | 1016.5 |
| 20260902022947 | 81 | 234 | 0.0 | 0.9 | 0.00 | 0.00 | 0.00 | 70 | 1016.5 |
| 20260902022447 | 81 | 234 | 0.0 | 0.9 | 0.00 | 0.00 | 0.00 | 70 | 1016.6 |
| 20260902021947 | 81 | 234 | 0.0 | 0.9 | 0.00 | 0.00 | 0.00 | 70 | 1016.6 |
| 20260902021508 | 81 | 238 | 0.0 | 1.7 | 0.00 | 0.00 | 0.00 | 70 | 1016.5 |
| 20260902020947 | 81 | 263 | 0.9 | 1.7 | 0.00 | 0.00 | 0.00 | 70 | 1016.5 |
| 20260902020447 | 81 | 279 | 0.0 | 1.7 | 0.00 | 0.00 | 0.00 | 71 | 1016.5 |
| 20260902015947 | 81 | 288 | 0.0 | 0.9 | 0.00 | 0.00 | 0.00 | 71 | 1016.5 |
| 20260902015447 | 81 | 288 | 0.0 | 0.9 | 0.00 | 0.00 | 0.00 | 71 | 1016.5 |
| 20260902014947 | 81 | 288 | 0.0 | 0.9 | 0.00 | 0.00 | 0.00 | 71 | 1016.5 |
| 20260902014447 | 81 | 288 | 0.0 | 0.9 | 0.00 | 0.00 | 0.00 | 71 | 1016.5 |
| 20260902013947 | 81 | 288 | 0.0 | 0.9 | 0.00 | 0.00 | 0.00 | 70 | 1016.5 |
| 20260902013508 | 81 | 288 | 0.0 | 0.9 | 0.00 | 0.00 | 0.00 | 71 | 1016.5 |
| 20260902013008 | 81 | 288 | 0.0 | 0.9 | 0.00 | 0.00 | 0.00 | 70 | 1016.5 |
| 20260902012446 | 82 | 288 | 0.0 | 0.9 | 0.00 | 0.00 | 0.00 | 70 | 1016.4 |
| 20260902011947 | 82 | 288 | 0.0 | 0.9 | 0.00 | 0.00 | 0.00 | 70 | 1016.3 |
| 20260902011447 | 82 | 288 | 0.0 | 0.9 | 0.00 | 0.00 | 0.00 | 70 | 1016.3 |
| 20260902011008 | 82 | 288 | 0.0 | 0.9 | 0.00 | 0.00 | 0.00 | 69 | 1016.2 |
| 20260902010447 | 82 | 288 | 0.0 | 0.9 | 0.00 | 0.00 | 0.00 | 70 | 1016.2 |
| 20260902010008 | 82 | 0 | 0.0 | 0.0 | 0.00 | 0.00 | 0.00 | 69 | 1016.1 |
| 20260902005508 | 82 | 0 | 0.0 | 0.0 | 0.00 | 0.00 | 0.00 | 68 | 1016.1 |
| 20260902004947 | 82 | 0 | 0.0 | 0.0 | 0.00 | 0.00 | 0.00 | 68 | 1016.1 |
| 20260902004447 | 83 | 0 | 0.0 | 0.0 | 0.00 | 0.00 | 0.00 | 67 | 1016.0 |
| 20260902003946 | 83 | 0 | 0.0 | 0.0 | 0.00 | 0.00 | 0.00 | 68 | 1016.0 |
| 20260902003447 | 84 | 0 | 0.0 | 0.0 | 0.00 | 0.00 | 0.00 | 66 | 1016.0 |
| 20260902002947 | 84 | 0 | 0.0 | 0.0 | 0.00 | 0.00 | 0.00 | 66 | 1016.0 |
| 20260902002447 | 84 | 0 | 0.0 | 0.0 | 0.00 | 0.00 | 0.00 | 65 | 1016.0 |
| 20260902001947 | 85 | 0 | 0.0 | 0.0 | 0.00 | 0.00 | 0.00 | 64 | 1016.0 |
| 20260902001447 | 85 | 0 | 0.0 | 0.0 | 0.00 | 0.00 | 0.00 | 63 | 1016.1 |
| 20260902000947 | 86 | 0 | 0.0 | 0.0 | 0.00 | 0.00 | 0.00 | 62 | 1016.1 |
| 20260902000508 | 86 | 0 | 0.0 | 0.0 | 0.00 | 0.00 | 0.00 | 61 | 1016.2 |
| 20260901235947 | 87 | 0 | 0.0 | 0.0 | 0.00 | 0.00 | 0.00 | 60 | 1016.2 |
| 20260901235447 | 88 | 0 | 0.0 | 0.0 | 0.00 | 0.00 | 0.00 | 60 | 1016.2 |
| 20260901234946 | 88 | 288 | 0.0 | 0.9 | 0.00 | 0.00 | 0.00 | 58 | 1016.2 |
| 20260901234447 | 89 | 288 | 0.0 | 0.9 | 0.00 | 0.00 | 0.00 | 57 | 1016.2 |
| 20260901233947 | 89 | 291 | 0.0 | 2.6 | 0.00 | 0.00 | 0.00 | 56 | 1016.2 |
| 20260901233508 | 90 | 291 | 0.0 | 2.6 | 0.00 | 0.00 | 0.00 | 55 | 1016.3 |
| 20260901232947 | 90 | 315 | 0.0 | 0.9 | 0.00 | 0.00 | 0.00 | 54 | 1016.2 |
| 20260901232447 | 91 | 315 | 0.0 | 1.7 | 0.00 | 0.00 | 0.00 | 53 | 1016.4 |
| 20260901231947 | 92 | 274 | 0.9 | 2.6 | 0.00 | 0.00 | 0.00 | 52 | 1016.4 |
| 20260901231447 | 92 | 227 | 0.9 | 2.6 | 0.00 | 0.00 | 0.00 | 50 | 1016.4 |
| 20260901230947 | 92 | 216 | 0.9 | 5.2 | 0.00 | 0.00 | 0.00 | 49 | 1016.3 |
| 20260901230508 | 93 | 233 | 0.9 | 5.2 | 0.00 | 0.00 | 0.00 | 49 | 1016.3 |
| 20260901225947 | 93 | 243 | 0.9 | 2.6 | 0.00 | 0.00 | 0.00 | 49 | 1016.3 |
| 20260901225447 | 93 | 235 | 0.9 | 2.6 | 0.00 | 0.00 | 0.00 | 48 | 1016.3 |
| 20260901224947 | 93 | 245 | 0.9 | 3.5 | 0.00 | 0.00 | 0.00 | 49 | 1016.3 |
| 20260901224446 | 93 | 240 | 1.7 | 4.3 | 0.00 | 0.00 | 0.00 | 48 | 1016.3 |
| 20260901223948 | 93 | 198 | 1.7 | 6.1 | 0.00 | 0.00 | 0.00 | 47 | 1016.3 |
| 20260901223447 | 93 | 176 | 1.7 | 6.1 | 0.00 | 0.00 | 0.00 | 47 | 1016.2 |
| 20260901222947 | 93 | 238 | 0.9 | 3.5 | 0.00 | 0.00 | 0.00 | 47 | 1016.2 |
| 20260901222447 | 94 | 215 | 0.9 | 3.5 | 0.00 | 0.00 | 0.00 | 47 | 1016.1 |
| 20260901222008 | 93 | 173 | 1.7 | 6.1 | 0.00 | 0.00 | 0.00 | 49 | 1016.2 |
| 20260901221447 | 93 | 219 | 1.7 | 6.1 | 0.00 | 0.00 | 0.00 | 47 | 1016.2 |
| 20260901220947 | 94 | 196 | 1.7 | 4.3 | 0.00 | 0.00 | 0.00 | 48 | 1016.2 |
| 20260901220447 | 93 | 165 | 1.7 | 4.3 | 0.00 | 0.00 | 0.00 | 48 | 1016.1 |
| 20260901215946 | 94 | 186 | 1.7 | 7.0 | 0.00 | 0.00 | 0.00 | 49 | 1016.1 |
| 20260901215447 | 94 | 192 | 1.7 | 7.0 | 0.00 | 0.00 | 0.00 | 47 | 1016.2 |
| 20260901214947 | 94 | 200 | 1.7 | 7.0 | 0.00 | 0.00 | 0.00 | 47 | 1016.2 |
| 20260901214447 | 94 | 169 | 1.7 | 6.1 | 0.00 | 0.00 | 0.00 | 49 | 1016.2 |
| 20260901213947 | 94 | 152 | 1.7 | 6.1 | 0.00 | 0.00 | 0.00 | 47 | 1016.1 |
| 20260901213448 | 94 | 212 | 1.7 | 6.1 | 0.00 | 0.00 | 0.00 | 45 | 1016.1 |
| 20260901213008 | 95 | 244 | 1.7 | 4.3 | 0.00 | 0.00 | 0.00 | 46 | 1016.1 |